Location: Martley
(52.2333°N, 2.3667°W)
Time: 00:45:18
(UTC+00:00)

ATLAS 5 CENTAUR R/B - Pass Details

Date: 11 December 2019
Orbit: 550 x 1109 km, 63.4° (Epoch: 17 January)

Event Time Altitude Azimuth Distance (km) Brightness Sun altitude
Exits shadow 04:06:27 19° 45° (NE) 1,605 4.1 -35.6°
Drops below altitude 10° 04:07:59 10° 46° (NE) 2,202 4.9 -35.3°
Sets 04:10:32 0° 47° (NE) 3,219 5.9 -35.0°
